TimeCDT,TemperatureF,Dew PointF,Humidity,Sea Level PressureIn,VisibilityMPH,Wind Direction,Wind SpeedMPH,Gust SpeedMPH,PrecipitationIn,Events,Conditions,WindDirDegrees,DateUTC
12:00 AM,-14.8,-20.2,77,29.70,9.0,ESE,9.2,-,N/A,,Clear,120,2013-04-25 05:00:00
1:00 AM,-16,-21,65,29.68,,ESE,8.1,,,,,110,2013-04-25 06:00:00
1:00 AM,-16.6,-20.2,84,29.69,9.0,ESE,8.1,-,N/A,,Clear,110,2013-04-25 06:00:00
2:00 AM,-16.6,-22.0,76,29.69,9.0,ESE,8.1,-,N/A,,Clear,110,2013-04-25 07:00:00
3:00 AM,-18.4,-23.8,76,29.69,9.0,ESE,8.1,-,N/A,,Clear,110,2013-04-25 08:00:00
4:00 AM,-20.2,-25.6,76,29.69,9.0,East,6.9,-,N/A,,Clear,90,2013-04-25 09:00:00
6:00 AM,-22.0,-27.4,76,29.70,9.0,ENE,3.5,-,N/A,,Clear,70,2013-04-25 11:00:00
7:00 AM,-23,-28,62,29.68,,NE,8.1,,,,,50,2013-04-25 12:00:00
7:00 AM,-22.0,-27.4,76,29.69,9.0,NNE,9.2,-,N/A,,Clear,20,2013-04-25 12:00:00
8:00 AM,-20.2,-25.6,76,29.69,9.0,NNE,10.4,-,N/A,,Clear,30,2013-04-25 13:00:00
9:00 AM,-18.4,-22.0,84,29.70,12.0,NNE,6.9,-,N/A,,Ice Crystals,30,2013-04-25 14:00:00
10:00 AM,-16.6,-20.2,84,29.70,15.0,NE,4.6,-,N/A,,Ice Crystals,40,2013-04-25 15:00:00
11:00 AM,-13.0,-18.4,77,29.69,15.0,NE,5.8,-,N/A,,Ice Crystals,50,2013-04-25 16:00:00
12:00 PM,-11.2,-16.6,77,29.70,15.0,NE,5.8,-,N/A,,Ice Crystals,50,2013-04-25 17:00:00
1:00 PM,-9,-13,74,29.68,,East,9.2,,,,,80,2013-04-25 18:00:00
2:00 PM,-7.6,-13.0,77,29.71,15.0,ENE,5.8,-,N/A,,Ice Crystals,60,2013-04-25 19:00:00
3:00 PM,-5.8,-11.2,77,29.72,15.0,ENE,4.6,-,N/A,,Ice Crystals,70,2013-04-25 20:00:00
4:00 PM,-5.8,-9.4,84,29.73,15.0,ENE,5.8,18.4,N/A,,Ice Crystals,70,2013-04-25 21:00:00
5:00 PM,-5.8,-9.4,84,29.73,15.0,East,5.8,-,N/A,,Ice Crystals,80,2013-04-25 22:00:00
6:00 PM,-4.0,-9.4,78,29.73,15.0,East,3.5,-,N/A,,Ice Crystals,80,2013-04-25 23:00:00
7:00 PM,-5,-9,74,29.72,,East,5.8,,,,,80,2013-04-26 00:00:00
7:00 PM,-5.8,-9.4,84,29.74,15.0,NE,2.3,-,N/A,,Ice Crystals,50,2013-04-26 00:00:00
8:00 PM,-7.6,-11.2,84,29.74,9.0,ENE,2.3,-,N/A,,Clear,60,2013-04-26 01:00:00
9:00 PM,-7.6,-11.2,84,29.75,9.0,NE,3.5,-,N/A,,Clear,40,2013-04-26 02:00:00
10:00 PM,-9.4,-14.8,77,29.75,9.0,Calm,Calm,-,N/A,,Clear,0,2013-04-26 03:00:00
11:00 PM,-11.2,-14.8,84,29.74,9.0,East,3.5,-,N/A,,Partly Cloudy,80,2013-04-26 04:00:00
11:31 PM,-9.4,-13.0,84,29.74,5.0,East,8.1,-,N/A,,Haze,100,2013-04-26 04:31:00
11:41 PM,-11.2,-14.8,84,29.74,9.0,East,6.9,-,N/A,,Clear,100,2013-04-26 04:41:00